Location: *
(32.8140°S, 174.6161°E)
Time: 14:48:04
(UTC+00:00)

UNK - Pass Details

Date: 10 December 2019
Orbit: 666 x 687 km, 98.1° (Epoch: 22 January)

Event Time Altitude Azimuth Distance (km) Brightness Sun altitude
Rises 14:59:31 0° 170° (S) 3,041 8.1 -21.7°
Reaches altitude 10° 15:01:46 10° 171° (S) 2,121 7.1 -21.4°
Maximum altitude 15:06:24 76° 256° (WSW) 701 3.6 -20.8°
Enters shadow 15:07:35 49° 329° (NNW) 870 3.8 -20.6°
